Regional Weather Roundup
Issued by NWS New Orleans/Baton Rouge, LA

Home | Current Version | Previous Version | Text Only | Print | Product List | Glossary On
Versions: 1 2 3 4 5 6 7 8 9 10 11 12 13 14 15 16 17 18 19 20 21 22 23 24 25 26 27 28 29 30 31 32 33 34 35 36 37 38 39 40 41 42 43 44 45 46 47 48 49 50
000
ASUS44 KLIX 232112
RWRLIX
NEW ORLEANS REGIONAL WEATHER ROUNDUP
NATIONAL WEATHER SERVICE NEW ORLEANS LA
300 PM CST THU FEB 23 2017

NOTE: "FAIR" INDICATES FEW OR NO CLOUDS BELOW 12,000 FEET WITH NO
      SIGNIFICANT WEATHER AND/OR OBSTRUCTIONS TO VISIBILITY.
      SKY/WX - SKY CONDITION AND SIGNIFICANT WEATHER.
      TMP - AIR TEMPERATURE.     DP    - DEWPOINT TEMPERATURE.
      RH  - RELATIVE HUMIDITY.   PRES  - PRESSURE.
      HI  - HEAT INDEX.          WCI   - WIND CHILL INDEX.

*  THESE STATIONS ARE NOT NWS OR FAA STATIONS AND ARE NOT UNDER
   NWS QUALITY CONTROL.

LAZ038-040-048-061>063-065>067-069-232200-
SOUTHEAST LOUISIANA

CITY           SKY/WX    TMP DP  RH WIND       PRES   REMARKS
N.O. AUDUBON   NOT AVBL
N.O. INTL ARPT MOSUNNY   76  59  55 S9        29.76F
N.O. LAKEFRONT SUNNY     77  62  59 MISG      29.76F
N.O. DOWNTOWN*   N/A     78  62  57 VRB3      29.77F
RESERVE*       NOT AVBL
SLIDELL        MOSUNNY   77  60  55 VRB5      29.76F
BATON ROUGE    SUNNY     80  56  43 SE7       29.75F
BOOTHVILLE     MOSUNNY   72  65  78 NE6       29.78S
BELLE CHASSE   MOSUNNY   74  64  71 SE7       29.76F
BOGALUSA*        N/A     82  57  41 SW13      29.77S
GALLIANO*      PTCLDY    74  61  62 SW6       29.77F
NEW ROADS*       N/A     78  57  48 S6        29.75F
GONZALES*        N/A     78  58  49 S10       29.75F
HAMMOND*       SUNNY     79  55  44 S10       29.76S
HOUMA*         MOSUNNY   75  61  60 SE8       29.77F
PORT FOURCHON* CLEAR     72  63  73 SE6       29.78F

$$

MSZ070-080>082-232200-
SOUTHERN MISSISSIPPI

CITY           SKY/WX    TMP DP  RH WIND       PRES   REMARKS
MCCOMB         MOSUNNY   79  55  43 S13G18    29.75F
GULFPORT       SUNNY     72  61  68 S7        29.78F
BILOXI         SUNNY     71  63  76 SW8       29.78F
PASCAGOULA     SUNNY     73  59  61 VRB6      29.77F
STENNIS ARPT*  MOSUNNY   75  54  46 S9        29.78F

$$

COASTAL OBSERVATIONS
LAKE AND NEARSHORE STATIONS

STATION/POSITION TIME  TEMP    WIND        PRES    WAVE
                       AIR SEA DIR/SP/G            HT/PER
                 (UTC) (F)     (DEG/KT/KT) (MB)    (FT/S)
PASCAGOULA       2048   67     180/  7/  8 1008.1
WAVELAND YACHT   2048          160/  8/  9   N/A
GRAND ISLE       2048   71 68  160/  4/  6 1008.6
SOUTHWEST PASS   2048          120/  1/  2   N/A
NEW CANAL        2048   69 67   10/  7/  9 1007.2
SHELL BEACH      2048          180/  7/ 11   N/A

OFFSHORE STATIONS

STATION/POSITION TIME  TEMP    WIND        PRES    WAVE
                       AIR SEA DIR/SP/G            HT/PER
                 (UTC) (F)     (DEG/KT/KT) (MB)    (FT/S)

$$




USA.gov is the U.S. government's official web portal to all federal, state and local government web resources and services.